Time,TemperatureF,DewpointF,PressureIn,WindDirection,WindDirectionDegrees,WindSpeedMPH,WindSpeedGustMPH,Humidity,HourlyPrecipIn,Conditions,Clouds,dailyrainin,SoftwareType,DateUTC
2013-08-20 00:01:00,75.6,60.2,30.09,NE,51,0.0,0.0,59,0.00,,---,0.00,VWS V14.01,2013-08-20 04:01:00,
2013-08-20 00:06:00,75.6,60.2,30.09,NE,51,0.0,0.0,59,0.00,,---,0.00,VWS V14.01,2013-08-20 04:06:00,
2013-08-20 00:11:00,75.4,60.1,30.09,NE,51,0.0,0.0,59,0.00,,---,0.00,VWS V14.01,2013-08-20 04:11:00,
2013-08-20 00:16:00,75.4,60.1,30.09,NE,51,0.0,0.0,59,0.00,,---,0.00,VWS V14.01,2013-08-20 04:16:00,
2013-08-20 00:21:00,75.2,59.9,30.09,NE,51,0.0,0.0,59,0.00,,---,0.00,VWS V14.01,2013-08-20 04:21:00,
2013-08-20 00:26:00,75.2,60.8,30.09,NE,51,0.0,0.0,61,0.00,,---,0.00,VWS V14.01,2013-08-20 04:26:00,
2013-08-20 00:31:00,75.2,60.4,30.09,NE,51,0.0,0.0,60,0.00,,---,0.00,VWS V14.01,2013-08-20 04:31:00,
2013-08-20 00:36:00,75.2,60.8,30.09,NE,51,0.0,0.0,61,0.00,,---,0.00,VWS V14.01,2013-08-20 04:36:00,
2013-08-20 00:41:00,75.0,60.7,30.09,NE,51,0.0,0.0,61,0.00,,---,0.00,VWS V14.01,2013-08-20 04:41:00,
2013-08-20 00:46:00,75.0,60.7,30.09,NE,51,0.0,0.0,61,0.00,,---,0.00,VWS V14.01,2013-08-20 04:46:00,
2013-08-20 00:51:00,75.0,60.7,30.09,NE,51,0.0,0.0,61,0.00,,---,0.00,VWS V14.01,2013-08-20 04:51:00,
2013-08-20 00:56:00,75.0,60.7,30.09,NE,51,0.0,0.0,61,0.00,,---,0.00,VWS V14.01,2013-08-20 04:56:00,
2013-08-20 01:01:00,74.8,61.0,30.06,NE,51,0.0,0.0,62,0.00,,---,0.00,VWS V14.01,2013-08-20 05:01:00,
2013-08-20 01:06:00,74.8,61.0,30.06,NE,51,0.0,0.0,62,0.00,,---,0.00,VWS V14.01,2013-08-20 05:06:00,
2013-08-20 01:11:00,74.8,61.0,30.06,NE,51,0.0,0.0,62,0.00,,---,0.00,VWS V14.01,2013-08-20 05:11:00,
2013-08-20 01:16:00,74.8,61.0,30.06,NE,51,0.0,0.0,62,0.00,,---,0.00,VWS V14.01,2013-08-20 05:16:00,
2013-08-20 01:21:00,74.7,60.8,30.06,NE,51,0.0,0.0,62,0.00,,---,0.00,VWS V14.01,2013-08-20 05:21:00,
2013-08-20 01:26:00,74.7,60.8,30.06,NE,51,0.0,0.0,62,0.00,,---,0.00,VWS V14.01,2013-08-20 05:26:00,
2013-08-20 01:31:00,74.7,60.8,30.06,NE,51,0.0,0.0,62,0.00,,---,0.00,VWS V14.01,2013-08-20 05:31:00,
2013-08-20 01:36:00,74.7,60.8,30.06,NE,51,0.0,0.0,62,0.00,,---,0.00,VWS V14.01,2013-08-20 05:36:00,
2013-08-20 01:41:00,74.7,61.2,30.06,NE,51,0.0,0.0,63,0.00,,---,0.00,VWS V14.01,2013-08-20 05:41:00,
2013-08-20 01:46:00,74.7,61.2,30.06,NE,51,0.0,0.0,63,0.00,,---,0.00,VWS V14.01,2013-08-20 05:46:00,
2013-08-20 01:51:00,74.7,61.2,30.06,NE,51,0.0,0.0,63,0.00,,---,0.00,VWS V14.01,2013-08-20 05:51:00,
2013-08-20 01:56:00,74.5,61.1,30.06,NE,51,0.0,0.0,63,0.00,,---,0.00,VWS V14.01,2013-08-20 05:56:00,
2013-08-20 02:01:00,74.5,61.1,30.03,NE,51,0.0,0.0,63,0.00,,---,0.00,VWS V14.01,2013-08-20 06:01:00,
2013-08-20 02:06:00,74.5,61.1,30.03,NE,51,0.0,0.0,63,0.00,,---,0.00,VWS V14.01,2013-08-20 06:06:00,
2013-08-20 02:11:00,74.3,60.9,30.03,NE,51,0.0,0.0,63,0.00,,---,0.00,VWS V14.01,2013-08-20 06:11:00,
2013-08-20 02:16:00,74.3,60.9,30.03,NE,51,0.0,0.0,63,0.00,,---,0.00,VWS V14.01,2013-08-20 06:16:00,
2013-08-20 02:21:00,74.3,61.3,30.03,NE,51,0.0,0.0,64,0.00,,---,0.00,VWS V14.01,2013-08-20 06:21:00,
2013-08-20 02:26:00,74.3,61.3,30.03,NE,51,0.0,0.0,64,0.00,,---,0.00,VWS V14.01,2013-08-20 06:26:00,
2013-08-20 02:31:00,74.1,61.2,30.03,NE,51,0.0,0.0,64,0.00,,---,0.00,VWS V14.01,2013-08-20 06:31:00,
2013-08-20 02:37:00,74.1,61.2,30.03,NE,51,0.0,0.0,64,0.00,,---,0.00,VWS V14.01,2013-08-20 06:37:00,
2013-08-20 02:42:00,74.1,61.2,30.03,NE,51,0.0,0.0,64,0.00,,---,0.00,VWS V14.01,2013-08-20 06:42:00,
2013-08-20 02:47:00,74.1,61.2,30.03,NE,51,0.0,0.0,64,0.00,,---,0.00,VWS V14.01,2013-08-20 06:47:00,
2013-08-20 02:52:00,74.1,61.2,30.03,NE,51,0.0,0.0,64,0.00,,---,0.00,VWS V14.01,2013-08-20 06:52:00,
2013-08-20 02:57:00,74.1,61.2,30.03,NE,51,0.0,0.0,64,0.00,,---,0.00,VWS V14.01,2013-08-20 06:57:00,
2013-08-20 03:02:00,74.1,61.2,30.03,NE,51,0.0,0.0,64,0.00,,---,0.00,VWS V14.01,2013-08-20 07:02:00,
2013-08-20 03:07:00,74.1,61.6,30.03,NE,51,0.0,0.0,65,0.00,,---,0.00,VWS V14.01,2013-08-20 07:07:00,
2013-08-20 03:12:00,74.1,61.6,30.03,NE,51,0.0,0.0,65,0.00,,---,0.00,VWS V14.01,2013-08-20 07:12:00,
2013-08-20 03:17:00,74.1,61.6,30.03,NE,51,0.0,0.0,65,0.00,,---,0.00,VWS V14.01,2013-08-20 07:17:00,
2013-08-20 03:22:00,74.1,61.6,30.03,NE,51,0.0,0.0,65,0.00,,---,0.00,VWS V14.01,2013-08-20 07:22:00,
2013-08-20 03:27:00,73.9,61.4,30.03,NE,51,0.0,0.0,65,0.00,,---,0.00,VWS V14.01,2013-08-20 07:27:00,
2013-08-20 03:32:00,73.9,61.4,30.03,NE,51,0.0,0.0,65,0.00,,---,0.00,VWS V14.01,2013-08-20 07:32:00,
2013-08-20 03:37:00,73.9,61.4,30.03,NE,51,0.0,0.0,65,0.00,,---,0.00,VWS V14.01,2013-08-20 07:37:00,
2013-08-20 03:42:00,73.9,61.9,30.03,NE,51,0.0,0.0,66,0.00,,---,0.00,VWS V14.01,2013-08-20 07:42:00,
2013-08-20 03:47:00,73.9,61.9,30.03,NE,51,0.0,0.0,66,0.00,,---,0.00,VWS V14.01,2013-08-20 07:47:00,
2013-08-20 03:52:00,73.9,61.9,30.03,NE,51,0.0,0.0,66,0.00,,---,0.00,VWS V14.01,2013-08-20 07:52:00,
2013-08-20 03:57:00,73.9,61.9,30.03,NE,51,0.0,0.0,66,0.00,,---,0.00,VWS V14.01,2013-08-20 07:57:00,
2013-08-20 04:02:00,73.8,61.7,30.03,NE,51,0.0,0.0,66,0.00,,---,0.00,VWS V14.01,2013-08-20 08:02:00,
2013-08-20 04:07:00,73.8,61.7,30.03,NE,51,0.0,0.0,66,0.00,,---,0.00,VWS V14.01,2013-08-20 08:07:00,
2013-08-20 04:12:00,73.8,61.7,30.03,NE,51,0.0,0.0,66,0.00,,---,0.00,VWS V14.01,2013-08-20 08:12:00,
2013-08-20 04:17:00,73.8,62.1,30.03,NE,51,0.0,0.0,67,0.00,,---,0.00,VWS V14.01,2013-08-20 08:17:00,
2013-08-20 04:22:00,73.8,62.1,30.03,NE,51,0.0,0.0,67,0.00,,---,0.00,VWS V14.01,2013-08-20 08:22:00,
2013-08-20 04:27:00,73.8,62.1,30.03,NE,51,0.0,0.0,67,0.00,,---,0.00,VWS V14.01,2013-08-20 08:27:00,
2013-08-20 04:32:00,73.9,62.3,30.03,NE,51,0.0,0.0,67,0.00,,---,0.00,VWS V14.01,2013-08-20 08:32:00,
2013-08-20 04:37:00,73.9,62.7,30.03,NE,51,0.0,0.0,68,0.00,,---,0.00,VWS V14.01,2013-08-20 08:37:00,
2013-08-20 04:42:00,73.9,62.7,30.03,NE,51,0.0,0.0,68,0.00,,---,0.00,VWS V14.01,2013-08-20 08:42:00,
2013-08-20 04:47:00,73.9,62.7,30.03,NE,51,0.0,0.0,68,0.00,,---,0.00,VWS V14.01,2013-08-20 08:47:00,
2013-08-20 04:52:00,74.1,62.9,30.03,NE,51,0.0,0.0,68,0.00,,---,0.00,VWS V14.01,2013-08-20 08:52:00,
2013-08-20 04:57:00,74.1,62.9,30.03,NE,51,0.0,0.0,68,0.00,,---,0.00,VWS V14.01,2013-08-20 08:57:00,
2013-08-20 05:02:00,74.1,62.9,30.03,NE,51,0.0,0.0,68,0.00,,---,0.00,VWS V14.01,2013-08-20 09:02:00,
2013-08-20 05:07:00,73.9,62.7,30.03,NE,51,0.0,0.0,68,0.00,,---,0.00,VWS V14.01,2013-08-20 09:07:00,
2013-08-20 05:12:00,74.1,63.3,30.03,NE,51,0.0,0.0,69,0.00,,---,0.00,VWS V14.01,2013-08-20 09:12:00,
2013-08-20 05:17:00,74.1,63.3,30.03,NE,51,0.0,0.0,69,0.00,,---,0.00,VWS V14.01,2013-08-20 09:17:00,
2013-08-20 05:22:00,74.1,63.3,30.03,NE,51,0.0,0.0,69,0.00,,---,0.00,VWS V14.01,2013-08-20 09:22:00,
2013-08-20 05:27:00,74.1,63.3,30.03,NE,51,0.0,0.0,69,0.00,,---,0.00,VWS V14.01,2013-08-20 09:27:00,
2013-08-20 05:32:00,74.1,63.3,30.03,NE,51,0.0,0.0,69,0.00,,---,0.00,VWS V14.01,2013-08-20 09:32:00,
2013-08-20 05:37:00,74.1,63.3,30.03,NE,51,0.0,0.0,69,0.00,,---,0.00,VWS V14.01,2013-08-20 09:37:00,
2013-08-20 05:42:00,74.1,63.3,30.03,NE,51,0.0,0.0,69,0.00,,---,0.00,VWS V14.01,2013-08-20 09:42:00,
2013-08-20 05:47:00,74.1,63.7,30.03,NE,51,0.0,0.0,70,0.00,,---,0.00,VWS V14.01,2013-08-20 09:47:00,
2013-08-20 05:52:00,74.1,63.7,30.03,NE,51,0.0,0.0,70,0.00,,---,0.00,VWS V14.01,2013-08-20 09:52:00,
2013-08-20 05:57:00,74.1,63.7,30.03,NE,51,0.0,0.0,70,0.00,,---,0.00,VWS V14.01,2013-08-20 09:57:00,
2013-08-20 06:02:00,74.1,63.7,30.03,NE,51,0.0,0.0,70,0.00,,---,0.00,VWS V14.01,2013-08-20 10:02:00,
2013-08-20 06:07:00,74.1,63.7,30.03,NE,51,0.0,0.0,70,0.00,,---,0.00,VWS V14.01,2013-08-20 10:07:00,
2013-08-20 06:12:00,74.1,63.7,30.03,NE,51,0.0,0.0,70,0.00,,---,0.00,VWS V14.01,2013-08-20 10:12:00,
2013-08-20 06:17:00,74.1,64.1,30.03,NE,51,0.0,0.0,71,0.00,,---,0.00,VWS V14.01,2013-08-20 10:17:00,
2013-08-20 06:22:00,74.1,64.1,30.03,NE,51,0.0,0.0,71,0.00,,---,0.00,VWS V14.01,2013-08-20 10:22:00,
2013-08-20 06:27:00,73.9,64.0,30.03,NE,51,0.0,0.0,71,0.00,,---,0.00,VWS V14.01,2013-08-20 10:27:00,
2013-08-20 06:32:00,73.9,64.0,30.03,NE,51,0.0,0.0,71,0.00,,---,0.00,VWS V14.01,2013-08-20 10:32:00,
2013-08-20 06:37:00,73.9,64.0,30.03,NE,51,0.0,0.0,71,0.00,,---,0.00,VWS V14.01,2013-08-20 10:37:00,
2013-08-20 06:42:00,73.8,63.8,30.03,NE,51,0.0,0.0,71,0.00,,---,0.00,VWS V14.01,2013-08-20 10:42:00,
2013-08-20 06:47:00,73.8,63.8,30.03,NE,51,0.0,0.0,71,0.00,,---,0.00,VWS V14.01,2013-08-20 10:47:00,
2013-08-20 06:52:00,73.6,63.6,30.03,NE,51,0.0,0.0,71,0.00,,---,0.00,VWS V14.01,2013-08-20 10:52:00,
2013-08-20 06:57:00,73.6,63.6,30.03,NE,51,0.0,0.0,71,0.00,,---,0.00,VWS V14.01,2013-08-20 10:57:00,
2013-08-20 07:02:00,73.4,63.4,30.03,NE,51,0.0,0.0,71,0.00,,---,0.00,VWS V14.01,2013-08-20 11:02:00,
2013-08-20 07:07:00,73.4,63.4,30.03,NE,51,0.0,0.0,71,0.00,,---,0.00,VWS V14.01,2013-08-20 11:07:00,
2013-08-20 07:12:00,73.2,63.7,30.03,NE,51,0.0,0.0,72,0.00,,---,0.00,VWS V14.01,2013-08-20 11:12:00,
2013-08-20 07:17:00,73.2,63.7,30.03,NE,51,0.0,0.0,72,0.00,,---,0.00,VWS V14.01,2013-08-20 11:17:00,
2013-08-20 07:22:00,73.2,63.7,30.03,NE,51,0.0,0.0,72,0.00,,---,0.00,VWS V14.01,2013-08-20 11:22:00,
2013-08-20 07:27:00,73.0,63.5,30.03,NE,51,0.0,0.0,72,0.00,,---,0.00,VWS V14.01,2013-08-20 11:27:00,
2013-08-20 07:32:00,73.2,63.7,30.03,NE,51,0.0,0.0,72,0.00,,---,0.00,VWS V14.01,2013-08-20 11:32:00,
2013-08-20 07:37:00,73.0,63.5,30.03,NE,51,0.0,0.0,72,0.00,,---,0.00,VWS V14.01,2013-08-20 11:37:00,
2013-08-20 07:42:00,73.2,64.1,30.03,NE,51,0.0,0.0,73,0.00,,---,0.00,VWS V14.01,2013-08-20 11:42:00,
2013-08-20 07:47:00,73.2,64.1,30.03,NE,51,0.0,0.0,73,0.00,,---,0.00,VWS V14.01,2013-08-20 11:47:00,
2013-08-20 07:52:00,73.2,64.1,30.03,NE,51,0.0,0.0,73,0.00,,---,0.00,VWS V14.01,2013-08-20 11:52:00,
2013-08-20 07:57:00,73.4,64.2,30.03,NE,51,0.0,0.0,73,0.00,,---,0.00,VWS V14.01,2013-08-20 11:57:00,
2013-08-20 08:02:00,73.6,64.8,30.03,NE,51,0.0,0.0,74,0.00,,---,0.00,VWS V14.01,2013-08-20 12:02:00,
2013-08-20 08:07:00,73.9,65.1,30.03,SE,137,0.0,0.0,74,0.00,,---,0.00,VWS V14.01,2013-08-20 12:07:00,
2013-08-20 08:12:00,74.3,65.9,30.03,ENE,65,0.0,0.0,75,0.00,,---,0.00,VWS V14.01,2013-08-20 12:12:00,
2013-08-20 08:17:00,75.0,66.9,30.06,ENE,69,0.0,0.0,76,0.00,,---,0.00,VWS V14.01,2013-08-20 12:17:00,
2013-08-20 08:22:00,75.7,68.0,30.06,ENE,64,3.1,3.1,77,0.00,,---,0.00,VWS V14.01,2013-08-20 12:22:00,
2013-08-20 08:27:00,76.6,69.6,30.06,ENE,68,3.1,3.1,79,0.00,,---,0.00,VWS V14.01,2013-08-20 12:27:00,
2013-08-20 08:32:00,77.2,69.8,30.06,ESE,122,0.0,0.0,78,0.00,,---,0.00,VWS V14.01,2013-08-20 12:32:00,
2013-08-20 08:37:00,77.4,70.0,30.06,SSE,152,3.1,3.1,78,0.00,,---,0.00,VWS V14.01,2013-08-20 12:37:00,
2013-08-20 08:42:00,77.5,70.5,30.06,East,86,0.0,0.0,79,0.00,,---,0.00,VWS V14.01,2013-08-20 12:42:00,
2013-08-20 08:47:00,77.9,70.9,30.06,ENE,63,0.0,3.6,79,0.00,,---,0.00,VWS V14.01,2013-08-20 12:47:00,
2013-08-20 08:52:00,78.8,73.9,30.06,NE,50,0.0,2.7,85,0.00,,---,0.00,VWS V14.01,2013-08-20 12:52:00,
2013-08-20 08:57:00,79.2,73.2,30.06,NE,41,0.0,0.0,82,0.00,,---,0.00,VWS V14.01,2013-08-20 12:57:00,
2013-08-20 09:02:00,79.5,73.2,30.06,SSE,153,3.1,3.1,81,0.00,,---,0.00,VWS V14.01,2013-08-20 13:02:00,
2013-08-20 09:07:00,79.9,73.2,30.06,SE,129,0.0,0.0,80,0.00,,---,0.00,VWS V14.01,2013-08-20 13:07:00,
2013-08-20 09:12:00,80.2,73.1,30.06,NE,45,3.1,3.1,79,0.00,,---,0.00,VWS V14.01,2013-08-20 13:12:00,
2013-08-20 09:17:00,80.6,72.3,30.06,SSE,162,0.0,0.0,76,0.00,,---,0.00,VWS V14.01,2013-08-20 13:17:00,
2013-08-20 09:22:00,80.8,71.7,30.06,ESE,119,2.7,3.1,74,0.00,,---,0.00,VWS V14.01,2013-08-20 13:22:00,
2013-08-20 09:27:00,81.1,71.7,30.06,South,184,0.0,0.0,73,0.00,,---,0.00,VWS V14.01,2013-08-20 13:27:00,
2013-08-20 09:32:00,81.5,71.6,30.06,ESE,119,4.0,4.0,72,0.00,,---,0.00,VWS V14.01,2013-08-20 13:32:00,
2013-08-20 09:37:00,81.9,71.5,30.06,South,171,4.0,4.0,71,0.00,,---,0.00,VWS V14.01,2013-08-20 13:37:00,
2013-08-20 09:42:00,82.2,70.6,30.06,ENE,73,0.0,3.1,68,0.00,,---,0.00,VWS V14.01,2013-08-20 13:42:00,
2013-08-20 09:47:00,82.2,69.3,30.09,ESE,105,0.0,0.0,65,0.00,,---,0.00,VWS V14.01,2013-08-20 13:47:00,
2013-08-20 09:52:00,82.2,69.7,30.09,East,82,0.0,0.0,66,0.00,,---,0.00,VWS V14.01,2013-08-20 13:52:00,
2013-08-20 09:57:00,82.4,69.9,30.09,NE,42,3.6,3.6,66,0.00,,---,0.00,VWS V14.01,2013-08-20 13:57:00,
2013-08-20 10:02:00,82.6,69.6,30.09,SE,131,0.0,7.6,65,0.00,,---,0.00,VWS V14.01,2013-08-20 14:02:00,
2013-08-20 10:07:00,82.8,68.9,30.09,NE,42,4.9,4.9,63,0.00,,---,0.00,VWS V14.01,2013-08-20 14:07:00,
2013-08-20 10:12:00,83.1,69.7,30.09,East,87,3.6,4.9,64,0.00,,---,0.00,VWS V14.01,2013-08-20 14:12:00,
2013-08-20 10:17:00,83.5,68.6,30.09,East,79,4.0,5.4,61,0.00,,---,0.00,VWS V14.01,2013-08-20 14:17:00,
2013-08-20 10:22:00,84.2,67.3,30.06,SSW,198,2.7,2.7,57,0.00,,---,0.00,VWS V14.01,2013-08-20 14:22:00,
2013-08-20 10:27:00,84.2,69.3,30.06,SSW,206,2.2,2.2,61,0.00,,---,0.00,VWS V14.01,2013-08-20 14:27:00,
2013-08-20 10:32:00,84.4,67.5,30.09,NE,42,2.7,2.7,57,0.00,,---,0.00,VWS V14.01,2013-08-20 14:32:00,
2013-08-20 10:37:00,84.6,66.1,30.09,SSW,210,4.0,5.4,54,0.00,,---,0.00,VWS V14.01,2013-08-20 14:37:00,
2013-08-20 10:42:00,84.9,67.5,30.09,South,172,0.0,0.0,56,0.00,,---,0.00,VWS V14.01,2013-08-20 14:42:00,
2013-08-20 10:47:00,85.3,67.8,30.09,ESE,110,2.2,3.6,56,0.00,,---,0.00,VWS V14.01,2013-08-20 14:47:00,
2013-08-20 10:52:00,85.3,67.8,30.09,East,100,3.6,3.6,56,0.00,,---,0.00,VWS V14.01,2013-08-20 14:52:00,
2013-08-20 10:57:00,85.5,68.5,30.09,ENE,69,4.0,4.0,57,0.00,,---,0.00,VWS V14.01,2013-08-20 14:57:00,
2013-08-20 11:02:00,85.3,65.7,30.09,South,191,0.0,4.0,52,0.00,,---,0.00,VWS V14.01,2013-08-20 15:02:00,
2013-08-20 11:07:00,85.3,65.7,30.09,East,91,2.7,5.8,52,0.00,,---,0.00,VWS V14.01,2013-08-20 15:07:00,
2013-08-20 11:12:00,85.6,65.4,30.09,SW,216,2.7,5.8,51,0.00,,---,0.00,VWS V14.01,2013-08-20 15:12:00,
2013-08-20 11:17:00,85.8,65.6,30.09,SE,146,2.7,4.0,51,0.00,,---,0.00,VWS V14.01,2013-08-20 15:17:00,
2013-08-20 11:22:00,85.6,65.4,30.09,SSW,203,0.0,2.7,51,0.00,,---,0.00,VWS V14.01,2013-08-20 15:22:00,
2013-08-20 11:27:00,85.6,65.4,30.09,SSE,163,0.0,0.0,51,0.00,,---,0.00,VWS V14.01,2013-08-20 15:27:00,
2013-08-20 11:32:00,85.8,65.1,30.12,SSW,209,0.0,6.3,50,0.00,,---,0.00,VWS V14.01,2013-08-20 15:32:00,
2013-08-20 11:37:00,85.8,65.1,30.12,SSE,149,2.7,6.3,50,0.00,,---,0.00,VWS V14.01,2013-08-20 15:37:00,
2013-08-20 11:42:00,85.8,65.1,30.12,SSW,199,3.6,6.3,50,0.00,,---,0.00,VWS V14.01,2013-08-20 15:42:00,
2013-08-20 11:47:00,86.7,65.3,30.09,SE,140,2.2,4.9,49,0.00,,---,0.00,VWS V14.01,2013-08-20 15:47:00,
2013-08-20 11:52:00,86.9,65.5,30.09,SSE,162,4.0,4.9,49,0.00,,---,0.00,VWS V14.01,2013-08-20 15:52:00,
2013-08-20 11:57:00,86.9,64.9,30.09,West,269,3.1,3.1,48,0.00,,---,0.00,VWS V14.01,2013-08-20 15:57:00,
2013-08-20 12:02:00,87.1,65.0,30.12,ESE,111,4.9,6.3,48,0.00,,---,0.00,VWS V14.01,2013-08-20 16:02:00,
2013-08-20 12:07:00,87.4,65.4,30.12,ENE,62,2.7,6.3,48,0.00,,---,0.00,VWS V14.01,2013-08-20 16:07:00,
2013-08-20 12:12:00,87.6,63.0,30.12,NE,47,2.7,2.7,44,0.00,,---,0.00,VWS V14.01,2013-08-20 16:12:00,
2013-08-20 12:17:00,87.6,64.3,30.09,NNE,28,3.6,3.6,46,0.00,,---,0.00,VWS V14.01,2013-08-20 16:17:00,
2013-08-20 12:22:00,87.8,64.5,30.09,SE,126,3.1,4.0,46,0.00,,---,0.00,VWS V14.01,2013-08-20 16:22:00,
2013-08-20 12:27:00,88.0,61.3,30.09,North,353,3.6,5.8,41,0.00,,---,0.00,VWS V14.01,2013-08-20 16:27:00,
2013-08-20 12:32:00,88.3,63.0,30.09,South,186,0.0,2.7,43,0.00,,---,0.00,VWS V14.01,2013-08-20 16:32:00,
2013-08-20 12:37:00,88.5,62.5,30.09,East,91,0.0,2.7,42,0.00,,---,0.00,VWS V14.01,2013-08-20 16:37:00,
2013-08-20 12:42:00,88.5,61.8,30.09,NE,41,4.0,4.0,41,0.00,,---,0.00,VWS V14.01,2013-08-20 16:42:00,
2013-08-20 12:47:00,88.5,61.1,30.09,South,174,2.7,4.0,40,0.00,,---,0.00,VWS V14.01,2013-08-20 16:47:00,
2013-08-20 12:52:00,88.9,62.8,30.09,East,94,4.0,4.0,42,0.00,,---,0.00,VWS V14.01,2013-08-20 16:52:00,
2013-08-20 12:57:00,89.2,61.8,30.09,North,9,2.7,3.1,40,0.00,,---,0.00,VWS V14.01,2013-08-20 16:57:00,
2013-08-20 13:02:00,89.2,61.8,30.09,SSE,157,3.6,3.6,40,0.00,,---,0.00,VWS V14.01,2013-08-20 17:02:00,
2013-08-20 13:07:00,89.1,61.6,30.09,NE,34,0.0,0.0,40,0.00,,---,0.00,VWS V14.01,2013-08-20 17:07:00,
2013-08-20 13:12:00,88.7,61.3,30.09,NNE,15,0.0,0.0,40,0.00,,---,0.00,VWS V14.01,2013-08-20 17:12:00,
2013-08-20 13:17:00,88.5,61.1,30.09,ENE,69,4.9,4.9,40,0.00,,---,0.00,VWS V14.01,2013-08-20 17:17:00,
2013-08-20 13:22:00,88.9,61.5,30.09,ENE,57,5.4,5.4,40,0.00,,---,0.00,VWS V14.01,2013-08-20 17:22:00,
2013-08-20 13:27:00,88.7,61.3,30.09,SSE,164,3.1,3.1,40,0.00,,---,0.00,VWS V14.01,2013-08-20 17:27:00,
2013-08-20 13:32:00,88.7,60.6,30.09,SSW,208,0.0,2.7,39,0.00,,---,0.00,VWS V14.01,2013-08-20 17:32:00,
2013-08-20 13:37:00,89.1,61.6,30.09,SE,145,4.0,4.0,40,0.00,,---,0.00,VWS V14.01,2013-08-20 17:37:00,
2013-08-20 13:42:00,88.7,61.3,30.09,NE,54,0.0,0.0,40,0.00,,---,0.00,VWS V14.01,2013-08-20 17:42:00,
2013-08-20 13:48:00,88.3,61.0,30.09,ENE,68,0.0,0.0,40,0.00,,---,0.00,VWS V14.01,2013-08-20 17:48:00,
2013-08-20 13:53:00,87.8,60.5,30.09,NE,49,0.0,2.7,40,0.00,,---,0.00,VWS V14.01,2013-08-20 17:53:00,
2013-08-20 13:58:00,86.2,60.4,30.09,NNW,348,0.0,0.0,42,0.00,,---,0.00,VWS V14.01,2013-08-20 17:58:00,
2013-08-20 14:03:00,84.0,61.6,30.09,SW,222,2.2,2.7,47,0.00,,---,0.00,VWS V14.01,2013-08-20 18:03:00,
2013-08-20 14:08:00,82.9,59.4,30.09,South,174,0.0,0.0,45,0.00,,---,0.00,VWS V14.01,2013-08-20 18:08:00,
2013-08-20 14:13:00,82.2,60.6,30.09,SSE,163,0.0,2.2,48,0.00,,---,0.00,VWS V14.01,2013-08-20 18:13:00,
2013-08-20 14:18:00,82.0,62.1,30.09,WSW,253,0.0,0.0,51,0.00,,---,0.00,VWS V14.01,2013-08-20 18:18:00,
2013-08-20 14:23:00,82.6,62.1,30.09,SW,233,0.0,0.0,50,0.00,,---,0.00,VWS V14.01,2013-08-20 18:23:00,
2013-08-20 14:28:00,83.8,63.2,30.09,SSE,149,0.0,0.0,50,0.00,,---,0.00,VWS V14.01,2013-08-20 18:28:00,
2013-08-20 14:33:00,84.9,64.2,30.06,SE,140,0.0,0.0,50,0.00,,---,0.00,VWS V14.01,2013-08-20 18:33:00,
2013-08-20 14:38:00,86.0,64.0,30.06,South,170,0.0,0.0,48,0.00,,---,0.00,VWS V14.01,2013-08-20 18:38:00,
2013-08-20 14:43:00,86.9,63.0,30.06,NNE,22,0.0,2.7,45,0.00,,---,0.00,VWS V14.01,2013-08-20 18:43:00,
2013-08-20 14:48:00,87.4,62.9,30.06,ENE,64,0.0,2.7,44,0.00,,---,0.00,VWS V14.01,2013-08-20 18:48:00,
2013-08-20 14:53:00,88.2,64.2,30.06,SSE,157,0.0,0.0,45,0.00,,---,0.00,VWS V14.01,2013-08-20 18:53:00,
2013-08-20 14:58:00,88.9,64.2,30.06,NE,46,0.0,2.2,44,0.00,,---,0.00,VWS V14.01,2013-08-20 18:58:00,
2013-08-20 15:03:00,89.6,63.5,30.03,SSE,167,0.0,2.2,42,0.00,,---,0.00,VWS V14.01,2013-08-20 19:03:00,
2013-08-20 15:08:00,89.6,62.1,30.03,NE,54,3.1,3.1,40,0.00,,---,0.00,VWS V14.01,2013-08-20 19:08:00,
2013-08-20 15:13:00,90.3,63.5,30.03,ENE,64,0.0,3.6,41,0.00,,---,0.00,VWS V14.01,2013-08-20 19:13:00,
2013-08-20 15:18:00,90.3,62.7,30.03,NNE,30,3.1,3.1,40,0.00,,---,0.00,VWS V14.01,2013-08-20 19:18:00,
2013-08-20 15:23:00,89.6,62.1,30.03,ESE,109,0.0,2.7,40,0.00,,---,0.00,VWS V14.01,2013-08-20 19:23:00,
2013-08-20 15:28:00,88.9,62.2,30.03,ENE,63,0.0,0.0,41,0.00,,---,0.00,VWS V14.01,2013-08-20 19:28:00,
2013-08-20 15:33:00,88.7,62.0,30.03,NW,325,0.0,0.0,41,0.00,,---,0.00,VWS V14.01,2013-08-20 19:33:00,
2013-08-20 15:38:00,89.1,62.3,30.03,NE,42,0.0,0.0,41,0.00,,---,0.00,VWS V14.01,2013-08-20 19:38:00,
2013-08-20 15:43:00,89.4,61.9,30.03,ENE,65,2.2,2.7,40,0.00,,---,0.00,VWS V14.01,2013-08-20 19:43:00,
2013-08-20 15:48:00,89.8,62.3,30.03,NNE,30,2.7,3.1,40,0.00,,---,0.00,VWS V14.01,2013-08-20 19:48:00,
2013-08-20 15:53:00,90.1,62.6,30.03,NE,39,2.7,4.9,40,0.00,,---,0.00,VWS V14.01,2013-08-20 19:53:00,
2013-08-20 15:58:00,90.0,62.4,30.03,ENE,74,0.0,0.0,40,0.00,,---,0.00,VWS V14.01,2013-08-20 19:58:00,
2013-08-20 16:03:00,89.6,62.1,30.03,NE,44,0.0,0.0,40,0.00,,---,0.00,VWS V14.01,2013-08-20 20:03:00,
2013-08-20 16:08:00,89.2,61.8,30.03,ENE,57,0.0,2.2,40,0.00,,---,0.00,VWS V14.01,2013-08-20 20:08:00,
2013-08-20 16:13:00,88.7,61.3,30.03,North,357,0.0,2.7,40,0.00,,---,0.00,VWS V14.01,2013-08-20 20:13:00,
2013-08-20 16:18:00,88.5,61.1,30.03,East,86,2.7,3.6,40,0.00,,---,0.00,VWS V14.01,2013-08-20 20:18:00,
2013-08-20 16:23:00,88.3,61.0,30.03,ENE,71,2.7,2.7,40,0.00,,---,0.00,VWS V14.01,2013-08-20 20:23:00,
2013-08-20 16:28:00,88.2,60.8,30.03,North,8,0.0,3.1,40,0.00,,---,0.00,VWS V14.01,2013-08-20 20:28:00,
2013-08-20 16:33:00,88.2,60.8,30.03,North,5,0.0,0.0,40,0.00,,---,0.00,VWS V14.01,2013-08-20 20:33:00,
2013-08-20 16:38:00,88.0,61.3,30.03,North,5,0.0,0.0,41,0.00,,---,0.00,VWS V14.01,2013-08-20 20:38:00,
2013-08-20 16:43:00,88.0,61.3,30.03,East,79,3.1,4.0,41,0.00,,---,0.00,VWS V14.01,2013-08-20 20:43:00,
2013-08-20 16:48:00,88.2,61.5,30.03,SSW,194,2.7,2.7,41,0.00,,---,0.00,VWS V14.01,2013-08-20 20:48:00,
2013-08-20 16:53:00,88.7,61.3,30.03,ENE,59,0.0,0.0,40,0.00,,---,0.00,VWS V14.01,2013-08-20 20:53:00,
2013-08-20 16:58:00,88.9,61.5,30.03,South,184,3.6,3.6,40,0.00,,---,0.00,VWS V14.01,2013-08-20 20:58:00,
2013-08-20 17:03:00,88.9,60.8,30.03,NE,49,6.7,6.7,39,0.00,,---,0.00,VWS V14.01,2013-08-20 21:03:00,
2013-08-20 17:08:00,89.4,61.2,30.03,ENE,62,2.7,2.7,39,0.00,,---,0.00,VWS V14.01,2013-08-20 21:08:00,
2013-08-20 17:13:00,89.6,61.4,30.03,NNE,28,4.9,4.9,39,0.00,,---,0.00,VWS V14.01,2013-08-20 21:13:00,
2013-08-20 17:18:00,89.8,60.8,30.03,ENE,68,2.7,6.3,38,0.00,,---,0.00,VWS V14.01,2013-08-20 21:18:00,
2013-08-20 17:23:00,90.0,61.7,30.03,South,180,2.2,4.0,39,0.00,,---,0.00,VWS V14.01,2013-08-20 21:23:00,
2013-08-20 17:28:00,89.4,61.2,30.03,East,89,3.1,3.6,39,0.00,,---,0.00,VWS V14.01,2013-08-20 21:28:00,
2013-08-20 17:33:00,89.1,60.9,30.03,NE,36,3.6,5.4,39,0.00,,---,0.00,VWS V14.01,2013-08-20 21:33:00,
2013-08-20 17:38:00,89.1,60.9,30.03,SSE,153,2.7,3.6,39,0.00,,---,0.00,VWS V14.01,2013-08-20 21:38:00,
2013-08-20 17:43:00,89.2,61.1,30.03,SSE,153,2.2,2.7,39,0.00,,---,0.00,VWS V14.01,2013-08-20 21:43:00,
2013-08-20 17:48:00,89.2,61.1,30.03,ESE,111,3.6,4.0,39,0.00,,---,0.00,VWS V14.01,2013-08-20 21:48:00,
2013-08-20 17:53:00,89.2,61.1,30.03,NW,304,0.0,0.0,39,0.00,,---,0.00,VWS V14.01,2013-08-20 21:53:00,
2013-08-20 17:58:00,89.1,60.9,30.03,SSE,152,3.1,5.8,39,0.00,,---,0.00,VWS V14.01,2013-08-20 21:58:00,
2013-08-20 18:03:00,88.9,60.8,30.03,NNE,23,2.7,3.6,39,0.00,,---,0.00,VWS V14.01,2013-08-20 22:03:00,
2013-08-20 18:08:00,88.7,60.6,30.03,NE,45,5.8,6.3,39,0.00,,---,0.00,VWS V14.01,2013-08-20 22:08:00,
2013-08-20 18:13:00,88.7,60.6,30.03,NE,54,2.2,2.2,39,0.00,,---,0.00,VWS V14.01,2013-08-20 22:13:00,
2013-08-20 18:18:00,88.5,60.4,30.03,ESE,117,4.5,4.5,39,0.00,,---,0.00,VWS V14.01,2013-08-20 22:18:00,
2013-08-20 18:23:00,88.3,60.3,30.03,SSE,164,0.0,0.0,39,0.00,,---,0.00,VWS V14.01,2013-08-20 22:23:00,
2013-08-20 18:28:00,88.2,60.1,30.03,West,265,0.0,4.9,39,0.00,,---,0.00,VWS V14.01,2013-08-20 22:28:00,
2013-08-20 18:33:00,87.8,59.8,30.03,NE,50,2.7,7.6,39,0.00,,---,0.00,VWS V14.01,2013-08-20 22:33:00,
2013-08-20 18:38:00,87.4,59.5,30.03,NE,51,0.0,4.9,39,0.00,,---,0.00,VWS V14.01,2013-08-20 22:38:00,
2013-08-20 18:43:00,86.9,59.0,30.03,WSW,249,0.0,3.1,39,0.00,,---,0.00,VWS V14.01,2013-08-20 22:43:00,
2013-08-20 18:48:00,86.4,58.5,30.03,ENE,60,3.1,4.9,39,0.00,,---,0.00,VWS V14.01,2013-08-20 22:48:00,
2013-08-20 18:53:00,86.0,58.9,30.03,WNW,300,2.2,2.7,40,0.00,,---,0.00,VWS V14.01,2013-08-20 22:53:00,
2013-08-20 18:58:00,85.5,59.1,30.03,NE,47,5.4,6.3,41,0.00,,---,0.00,VWS V14.01,2013-08-20 22:58:00,
2013-08-20 19:03:00,85.3,58.2,30.03,NE,48,2.7,2.7,40,0.00,,---,0.00,VWS V14.01,2013-08-20 23:03:00,
2013-08-20 19:08:00,85.1,59.5,30.03,ESE,112,0.0,0.0,42,0.00,,---,0.00,VWS V14.01,2013-08-20 23:08:00,
2013-08-20 19:13:00,84.7,58.5,30.03,ENE,78,0.0,3.1,41,0.00,,---,0.00,VWS V14.01,2013-08-20 23:13:00,
2013-08-20 19:18:00,84.4,58.1,30.06,NE,55,0.0,0.0,41,0.00,,---,0.00,VWS V14.01,2013-08-20 23:18:00,
2013-08-20 19:23:00,84.0,58.5,30.06,NE,51,0.0,2.7,42,0.00,,---,0.00,VWS V14.01,2013-08-20 23:23:00,
2013-08-20 19:28:00,83.8,59.6,30.06,North,6,0.0,0.0,44,0.00,,---,0.00,VWS V14.01,2013-08-20 23:28:00,
2013-08-20 19:33:00,83.5,58.7,30.03,East,80,0.0,0.0,43,0.00,,---,0.00,VWS V14.01,2013-08-20 23:33:00,
2013-08-20 19:38:00,83.3,58.5,30.03,East,80,0.0,0.0,43,0.00,,---,0.00,VWS V14.01,2013-08-20 23:38:00,
2013-08-20 19:43:00,82.9,58.2,30.03,East,81,0.0,0.0,43,0.00,,---,0.00,VWS V14.01,2013-08-20 23:43:00,
2013-08-20 19:48:00,82.6,57.8,30.06,East,81,0.0,0.0,43,0.00,,---,0.00,VWS V14.01,2013-08-20 23:48:00,
2013-08-20 19:53:00,82.2,57.5,30.06,East,81,0.0,0.0,43,0.00,,---,0.00,VWS V14.01,2013-08-20 23:53:00,
2013-08-20 19:58:00,81.9,57.8,30.06,East,81,0.0,0.0,44,0.00,,---,0.00,VWS V14.01,2013-08-20 23:58:00,
2013-08-20 20:03:00,81.5,57.5,30.09,East,81,0.0,0.0,44,0.00,,---,0.00,VWS V14.01,2013-08-21 00:03:00,
2013-08-20 20:08:00,81.1,57.2,30.09,East,81,0.0,0.0,44,0.00,,---,0.00,VWS V14.01,2013-08-21 00:08:00,
2013-08-20 20:13:00,80.6,56.7,30.09,East,81,0.0,0.0,44,0.00,,---,0.00,VWS V14.01,2013-08-21 00:13:00,
2013-08-20 20:18:00,80.2,57.6,30.09,East,81,0.0,0.0,46,0.00,,---,0.00,VWS V14.01,2013-08-21 00:18:00,
2013-08-20 20:23:00,79.9,57.3,30.09,East,81,0.0,0.0,46,0.00,,---,0.00,VWS V14.01,2013-08-21 00:23:00,
2013-08-20 20:28:00,79.5,57.0,30.09,East,81,0.0,0.0,46,0.00,,---,0.00,VWS V14.01,2013-08-21 00:28:00,
2013-08-20 20:34:00,79.2,57.2,30.09,East,81,0.0,0.0,47,0.00,,---,0.00,VWS V14.01,2013-08-21 00:34:00,
2013-08-20 20:39:00,79.0,57.0,30.09,East,81,0.0,0.0,47,0.00,,---,0.00,VWS V14.01,2013-08-21 00:39:00,
2013-08-20 20:44:00,78.6,57.9,30.09,East,81,0.0,0.0,49,0.00,,---,0.00,VWS V14.01,2013-08-21 00:44:00,
2013-08-20 20:49:00,78.4,58.3,30.09,East,81,0.0,0.0,50,0.00,,---,0.00,VWS V14.01,2013-08-21 00:49:00,
2013-08-20 20:54:00,78.3,58.1,30.09,East,81,0.0,0.0,50,0.00,,---,0.00,VWS V14.01,2013-08-21 00:54:00,
2013-08-20 20:59:00,77.9,57.8,30.09,East,81,0.0,0.0,50,0.00,,---,0.00,VWS V14.01,2013-08-21 00:59:00,
2013-08-20 21:04:00,77.7,57.6,30.12,East,81,0.0,0.0,50,0.00,,---,0.00,VWS V14.01,2013-08-21 01:04:00,
2013-08-20 21:09:00,77.5,58.0,30.12,East,81,0.0,0.0,51,0.00,,---,0.00,VWS V14.01,2013-08-21 01:09:00,
2013-08-20 21:14:00,77.4,57.8,30.12,East,81,0.0,0.0,51,0.00,,---,0.00,VWS V14.01,2013-08-21 01:14:00,
2013-08-20 21:19:00,77.2,57.7,30.09,East,81,0.0,0.0,51,0.00,,---,0.00,VWS V14.01,2013-08-21 01:19:00,
2013-08-20 21:20:00,77.0,57.5,30.09,East,81,0.0,0.0,51,0.00,,---,0.00,VWS V14.01,2013-08-21 01:20:00,
2013-08-20 21:25:00,77.0,57.5,30.09,East,81,0.0,0.0,51,0.00,,---,0.00,VWS V14.01,2013-08-21 01:25:00,
2013-08-20 21:30:00,76.8,57.9,30.09,East,81,0.0,0.0,52,0.00,,---,0.00,VWS V14.01,2013-08-21 01:30:00,
2013-08-20 21:35:00,76.6,57.7,30.12,East,81,0.0,0.0,52,0.00,,---,0.00,VWS V14.01,2013-08-21 01:35:00,
2013-08-20 21:40:00,76.6,57.7,30.12,East,81,0.0,0.0,52,0.00,,---,0.00,VWS V14.01,2013-08-21 01:40:00,
2013-08-20 21:45:00,76.5,57.5,30.12,East,81,0.0,0.0,52,0.00,,---,0.00,VWS V14.01,2013-08-21 01:45:00,
2013-08-20 21:50:00,76.5,57.5,30.12,East,81,0.0,0.0,52,0.00,,---,0.00,VWS V14.01,2013-08-21 01:50:00,
2013-08-20 21:55:00,76.3,57.9,30.12,East,81,0.0,0.0,53,0.00,,---,0.00,VWS V14.01,2013-08-21 01:55:00,
2013-08-20 22:00:00,76.3,57.9,30.12,East,81,0.0,0.0,53,0.00,,---,0.00,VWS V14.01,2013-08-21 02:00:00,
2013-08-20 22:05:00,76.1,57.8,30.12,East,81,0.0,0.0,53,0.00,,---,0.00,VWS V14.01,2013-08-21 02:05:00,
2013-08-20 22:10:00,76.1,57.8,30.12,East,81,0.0,0.0,53,0.00,,---,0.00,VWS V14.01,2013-08-21 02:10:00,
2013-08-20 22:15:00,75.9,57.6,30.12,East,81,0.0,0.0,53,0.00,,---,0.00,VWS V14.01,2013-08-21 02:15:00,
2013-08-20 22:20:00,75.9,58.1,30.12,East,81,0.0,0.0,54,0.00,,---,0.00,VWS V14.01,2013-08-21 02:20:00,
2013-08-20 22:25:00,75.9,58.1,30.12,East,81,0.0,0.0,54,0.00,,---,0.00,VWS V14.01,2013-08-21 02:25:00,
2013-08-20 22:30:00,75.9,59.1,30.12,SSE,156,0.0,0.0,56,0.00,,---,0.00,VWS V14.01,2013-08-21 02:30:00,
2013-08-20 22:35:00,76.5,66.4,30.15,WSW,244,0.0,0.0,71,0.00,,---,0.00,VWS V14.01,2013-08-21 02:35:00,
2013-08-20 22:40:00,76.5,64.3,30.15,WSW,245,2.7,2.7,66,0.00,,---,0.00,VWS V14.01,2013-08-21 02:40:00,
2013-08-20 22:45:00,76.6,63.6,30.15,WSW,256,2.7,2.7,64,0.00,,---,0.00,VWS V14.01,2013-08-21 02:45:00,
2013-08-20 22:50:00,76.6,62.2,30.15,West,278,0.0,0.0,61,0.00,,---,0.00,VWS V14.01,2013-08-21 02:50:00,
2013-08-20 22:55:00,76.6,61.7,30.15,WNW,291,0.0,0.0,60,0.00,,---,0.00,VWS V14.01,2013-08-21 02:55:00,
2013-08-20 23:00:00,76.5,61.1,30.15,WNW,291,0.0,0.0,59,0.00,,---,0.00,VWS V14.01,2013-08-21 03:00:00,
2013-08-20 23:05:00,76.3,60.4,30.15,WNW,291,0.0,0.0,58,0.00,,---,0.00,VWS V14.01,2013-08-21 03:05:00,
2013-08-20 23:10:00,76.3,60.4,30.15,WNW,291,0.0,0.0,58,0.00,,---,0.00,VWS V14.01,2013-08-21 03:10:00,
2013-08-20 23:15:00,76.1,60.3,30.15,WNW,291,0.0,0.0,58,0.00,,---,0.00,VWS V14.01,2013-08-21 03:15:00,
2013-08-20 23:20:00,75.9,60.1,30.12,WNW,286,0.0,0.0,58,0.00,,---,0.00,VWS V14.01,2013-08-21 03:20:00,
2013-08-20 23:25:00,75.9,60.1,30.12,NNW,337,0.0,0.0,58,0.00,,---,0.00,VWS V14.01,2013-08-21 03:25:00,
2013-08-20 23:30:00,75.9,60.1,30.12,NNE,31,0.0,0.0,58,0.00,,---,0.00,VWS V14.01,2013-08-21 03:30:00,
2013-08-20 23:35:00,75.9,60.1,30.12,NE,39,0.0,0.0,58,0.00,,---,0.00,VWS V14.01,2013-08-21 03:35:00,
2013-08-20 23:40:00,75.9,60.1,30.12,NE,39,0.0,0.0,58,0.00,,---,0.00,VWS V14.01,2013-08-21 03:40:00,
2013-08-20 23:45:00,75.9,60.1,30.12,NE,39,0.0,0.0,58,0.00,,---,0.00,VWS V14.01,2013-08-21 03:45:00,
2013-08-20 23:50:00,75.7,59.4,30.12,NNE,27,0.0,0.0,57,0.00,,---,0.00,VWS V14.01,2013-08-21 03:50:00,
2013-08-20 23:55:00,75.6,59.3,30.12,NNE,27,0.0,0.0,57,0.00,,---,0.00,VWS V14.01,2013-08-21 03:55:00,